Reflectivity
-20 -16 -20 -20 -20 -19 -11 -20 -20 -20 -20 -20 -20 -20 -20 -20 -20 -20 -20 -20 -20 -20 -20 -20 -20 -20 -20 -20 -20 -20 -20 -20 -20 -20 -20 -20 -20 -20 -20 -20 -20 -20 -20 -20 -20
-20 -20 -6 4 6 -1 3 5 5 -20 -20 -20 -20 -20 -20 -20 -20 -20 -20 -20 -20 -20 -20 -20 -20 -20 -20 -20 -20 -20 -20 -20 -20 -20 -20 -20 -20 -20 -20 -20 -20 -20 -20 -20 -20
-20 -20 -20 -20 -20 -15 7 9 -17 -14 -20 -20 -20 -20 -20 -20 -20 -20 -20 -20 -20 -20 -20 -20 -20 -20 -20 -20 -20 -20 -20 -20 -20 -20 -20 -20 -20 -20 -20 -20 -20 -20 -20 -20 -20
-18 3 -17 -20 -20 -20 7 8 -6 -18 -20 -20 -20 -20 -20 -20 -20 -20 -20 -20 -20 -20 -20 -20 -20 -20 -20 -20 -20 -20 -20 -20 -20 -20 -20 -20 -20 -20 -20 -20 -20 -20 -20 -20 -20
-19 2 2 -8 -10 -20 2 7 12 14 11 -16 -13 -20 -9 -20 -20 -20 -20 -20 -20 -20 -20 -20 -20 -20 -20 -20 -20 -20 -20 -20 -20 -20 -20 -20 -20 -20 -20 -20 -20 -20 -20 -20 -20
-20 -17 7 4 -6 -20 -16 9 -16 -19 -4 -19 -20 -3 -19 -20 -20 -20 -20 -20 -20 -20 -20 -20 -20 -20 -20 -20 -20 -20 -20 -20 -20 -20 -20 -20 -20 -20 -20 -20 -20 -20 -20 -20 -20
-20 -14 -20 10 9 4 -17 13 -20 -20 -20 -20 -20 -20 -20 -20 -20 -20 -20 -20 -20 -20 -20 -20 -20 -20 -20 -20 -20 -20 -20 -20 -20 -20 -20 -20 -20 -20 -20 -20 -20 -20 -20 -20 -20
-1 -14 -1 10 -4 5 2 10 -5 -20 -19 3 -14 -20 -20 -20 -20 -20 -20 -20 -20 -20 -20 -20 -20 -20 -20 -20 -20 -20 -20 -20 -20 -20 -20 -20 -20 -20 -20 -20 -20 -20 -20 -20 -20
2 -20 -0 9 14 13 8 1 -2 -4 -19 3 -7 -20 -20 -20 -20 -20 -20 -20 -20 -20 -20 -20 -20 -20 -20 -20 -20 -20 -20 -20 -20 -20 -20 -20 -20 -20 -20 -20 -20 -20 -20 -20 -20
-15 -18 11 5 11 15 14 11 11 4 -3 -20 -20 -5 -20 -20 -20 -20 -20 -20 -20 -20 -20 -20 -20 -20 -20 -20 -20 -20 -20 -20 -20 -20 -20 -20 -20 -20 -20 -20 -20 -20 -20 -20 -20
-20 -15 3 14 15 23 3 12 16 -14 -13 -20 -20 -20 -20 -20 -20 -20 -20 -20 -20 -20 -11 -8 -20 -20 -20 -20 -20 9 -20 -20 -20 -20 -20 -20 -20 -20 -20 -20 -20 -20 -20 -20 -20
-1 3 -11 10 22 4 -14 -1 -2 -20 -20 -20 -20 -20 -20 -20 -20 -20 -20 -20 -20 -14 -18 28 3 7 0 6 1 5 -20 -20 -20 -20 -20 -20 -20 -20 -20 -20 -20 -20 -20 -20 -20
-9 6 -6 21 9 22 -15 12 -16 -15 15 -20 -20 -20 -20 -20 -20 -20 -20 -20 -20 7 11 1 6 19 15 -16 8 10 -19 -20 2 -12 -20 -20 -20 -20 -20 -20 -20 -20 -20 -20 -20
-20 2 20 24 21 -14 5 3 -5 20 29 -20 -20 -20 -20 -20 -20 -20 -20 -20 -20 -20 16 16 12 21 11 -7 8 2 2 -13 -4 -20 -20 -20 -20 -20 -20 -20 -20 -20 -20 -20 -20
-19 16 9 2 -20 -15 2 -5 -4 31 17 -20 -20 -20 -20 -20 -20 -20 -20 -20 -13 -16 0 9 3 15 32 24 14 -12 6 14 -11 -20 -20 -20 -20 -20 -20 -20 -20 -20 -20 -20 -20
21 19 13 4 -19 -3 -4 -17 13 21 15 -13 -20 -20 -20 -20 -20 -20 -20 -20 -8 31 28 20 19 23 3 19 26 16 6 -20 -20 -20 -20 -20 -20 -6 -20 -20 -20 -20 -20 -20 -20
22 20 13 13 19 -3 10 25 28 26 7 -15 -20 -20 -20 -20 -20 -20 -15 -20 -6 23 11 15 16 9 2 -2 8 16 19 15 10 2 -12 1 -19 -20 -20 -20 -20 -20 -20 -20 -20
21 24 20 10 21 28 30 29 20 21 -0 -20 -20 -20 -20 -20 -20 -20 7 9 16 -3 3 11 6 -13 -18 -20 -8 -19 9 14 5 -8 -20 -20 -20 -20 -20 -20 -20 -20 -20 -20 -20
17 12 21 23 14 7 9 16 7 7 6 -20 -20 -20 -14 -20 -20 -20 -20 4 -20 -20 -3 -16 7 -19 -9 -20 -15 -1 2 -13 -1 -20 -20 -20 -20 -17 -11 -11 -20 -20 -20 -20 -20
9 -7 1 -1 -2 14 14 -20 -19 -11 -16 -20 -20 -20 9 -20 -20 -20 -20 2 -18 -20 -13 -20 10 -19 -20 -16 -1 -16 5 4 -5 8 7 -20 -20 -20 -2 -20 -20 -20 -20 -20 -20
-20 -20 5 21 16 25 6 -20 -20 -20 -20 -20 -13 -20 -17 -20 -12 3 2 -20 -20 -7 16 -1 3 -15 -8 -9 -1 -20 -20 5 5 10 10 0 -13 -20 -20 -20 -20 -20 -20 -20 -20
-16 -12 14 23 26 23 8 -20 -20 -20 -20 -20 -20 -20 -20 -8 18 -20 -20 -20 -20 -20 -4 12 -13 -9 -2 -20 -19 -20 -20 -20 -20 -20 -20 -19 -20 -20 -20 -20 -20 -20 -20 -20 -20
12 4 6 23 15 10 4 -20 -20 -18 -12 8 -20 -20 -20 -9 -20 -20 7 18 -9 18 22 -8 -20 -18 -20 -20 -20 -20 -20 -20 -20 -20 -20 -20 -20 -20 -20 -20 -20 -20 -20 -20 -20
2 5 25 29 14 11 4 0 -4 -20 -18 -20 8 -19 -18 -3 -19 -20 -20 -10 -4 -16 8 -4 -20 -20 -20 -20 -20 -16 -20 -20 -20 -20 -20 -20 -20 -6 -20 -20 -20 -20 -20 -20 -20
-20 10 -20 7 12 10 -7 1 8 -4 -1 -20 -20 -20 16 -1 -20 -20 -20 -19 -12 8 -20 -20 -20 -20 -20 -20 -20 -20 -20 -20 -20 -20 -20 -20 -20 -20 -20 -20 -20 -20 -20 -20 -20
17 -20 -20 -20 -20 9 11 -20 9 -6 -20 -20 -20 -20 4 -16 -11 -17 -20 -15 -20 -20 -20 -20 -20 -20 -20 -20 -20 -20 -20 -20 -20 -20 -20 -20 -20 -20 -20 -10 -18 -20 -20 -20 -20
-20 -20 -20 -18 -15 12 1 -14 1 -20 -20 8 -20 -20 -20 -20 -20 -20 -20 -20 -20 -20 -20 -20 -20 -20 -20 -20 -20 -20 -20 -20 -20 -20 -4 -8 -1 -19 -4 16 -14 -15 -19 -3 -1
Wind_Speed
15 14 14 13 12 11 10 7 6 5 6 9 11 12 16 17 18 12 14 0 3 7 9 10 9 8 9 8 8 5 9 13 20 12 10 3 10 5 3 8 7 7 9 11 15
16 16 16 15 13 12 11 9 7 5 6 7 10 12 15 16 15 15 3 3 5 12 12 13 12 12 8 10 7 12 12 15 12 10 11 10 11 11 8 12 12 14 12 8 9
18 19 18 17 15 13 12 10 8 6 6 6 8 11 13 16 10 1 7 8 8 10 9 7 7 11 12 8 12 10 18 16 9 13 11 14 15 13 15 16 15 14 13 11 10
19 20 19 18 17 15 14 11 9 7 4 4 8 10 13 5 10 4 2 11 12 8 10 10 10 11 10 14 15 13 16 15 14 12 15 16 15 17 15 18 15 14 14 12 11
18 20 20 20 18 15 14 12 9 6 1 3 4 8 6 8 10 4 6 8 12 10 12 12 12 12 13 9 12 18 16 13 15 14 16 16 19 19 18 16 14 12 9 12 8
18 21 20 20 18 16 14 13 10 7 3 3 2 5 6 14 4 4 6 9 11 13 14 14 9 12 12 13 16 2 12 12 10 14 16 16 17 15 12 13 10 9 9 6 6
21 22 21 20 19 17 17 15 13 8 5 3 5 5 13 18 6 6 4 13 14 16 18 16 17 14 7 13 18 13 16 16 17 17 16 12 19 20 17 13 10 9 7 5 4
23 20 19 21 19 18 19 17 14 10 5 4 6 4 12 7 11 18 17 15 12 14 16 10 13 17 13 7 7 12 14 15 5 14 12 11 13 4 4 8 11 8 6 5 4
22 17 18 18 19 20 22 18 14 8 5 5 4 4 14 6 10 14 19 14 18 10 12 7 11 16 13 16 16 16 16 16 10 12 6 15 9 7 7 8 11 11 9 4 4
21 19 19 18 20 22 22 15 9 3 5 5 5 4 9 12 5 4 4 16 12 14 11 13 9 12 17 17 19 19 19 16 14 9 12 12 13 10 17 13 11 11 6 4 3
20 20 18 21 25 27 19 9 4 4 8 12 10 11 5 4 5 11 6 12 15 14 21 18 13 25 23 22 21 10 15 14 8 7 6 15 17 16 14 14 13 10 7 3 2
18 18 16 24 30 29 13 6 5 4 8 19 23 25 21 3 8 12 15 11 13 19 19 14 26 24 18 18 20 22 19 19 15 16 11 15 16 13 15 15 8 7 8 4 2
15 15 20 29 28 13 11 7 8 4 2 13 19 19 21 19 21 21 21 13 16 16 18 20 19 9 21 18 19 21 21 16 15 5 13 13 19 14 6 7 8 7 5 3 4
12 15 26 28 13 9 6 6 5 1 4 10 8 8 10 9 13 25 21 15 10 21 17 10 19 20 15 24 22 22 16 15 12 10 11 6 4 12 9 11 10 8 6 3 5
14 29 33 16 16 8 9 10 4 4 8 2 6 3 8 15 8 11 25 17 20 13 15 16 22 24 20 16 16 18 7 14 16 13 14 14 8 6 13 10 12 9 5 5 7
27 27 22 8 4 6 10 9 1 6 10 6 7 9 11 17 9 3 18 11 3 1 6 13 1 6 16 17 16 9 6 10 10 11 14 17 12 11 13 11 11 9 5 6 9
21 16 8 2 8 9 13 5 2 8 3 7 6 8 13 8 9 9 17 13 9 7 11 14 19 18 14 15 14 21 12 7 9 9 13 2 10 4 11 6 5 6 6 8 10
17 9 7 6 11 14 4 2 9 1 7 1 3 6 8 8 9 15 19 16 18 14 6 9 8 20 9 15 10 22 19 10 11 11 10 7 8 7 11 13 10 8 6 8 10
12 3 4 6 8 6 5 5 2 6 2 4 8 8 11 9 7 15 18 19 15 9 8 14 9 4 4 5 6 15 20 17 10 4 7 8 8 8 9 8 6 6 6 8 11
6 7 4 6 5 5 3 3 7 4 2 4 9 2 6 10 8 11 12 3 7 1 8 2 5 4 5 5 4 6 7 8 8 12 15 12 9 3 8 5 5 6 6 7 10
5 5 5 7 2 1 5 5 5 4 2 4 3 4 2 4 6 2 6 6 1 3 5 7 7 6 3 3 3 5 6 4 5 5 7 11 2 4 8 5 6 8 8 10 11
4 4 7 5 4 3 8 5 1 4 6 3 2 2 4 5 5 6 5 3 3 5 6 5 3 4 2 3 2 3 2 4 5 8 4 7 6 4 6 6 7 8 8 8 10
4 4 2 2 6 8 6 7 8 6 8 6 4 3 1 6 2 11 4 4 1 5 5 2 2 3 3 2 1 2 1 2 3 1 9 10 2 6 3 3 3 6 7 8 8
5 5 4 4 1 5 10 11 10 8 6 4 4 3 3 6 2 10 10 4 4 4 6 2 3 6 5 4 4 5 7 4 3 4 4 9 13 4 8 15 15 1 4 5 8
4 4 7 9 11 10 9 10 15 9 6 7 6 5 4 5 4 6 6 10 5 0 3 1 4 1 4 4 1 2 6 7 10 10 7 9 11 14 16 18 9 2 4 6 8
4 4 5 3 12 14 9 9 13 9 8 9 4 6 11 4 3 8 10 7 5 3 3 3 4 1 2 3 4 8 9 10 11 13 14 15 16 11 17 5 3 3 5 6 8
2 1 4 9 13 11 12 9 14 10 2 4 6 6 9 9 9 9 8 6 6 6 5 4 5 4 2 2 1 8 5 10 9 7 7 11 13 17 15 3 4 5 8 7 9
Wind_Direction
238 239 239 233 231 226 237 241 244 268 292 308 321 326 321 324 309 288 267 68 159 154 198 151 172 175 195 201 221 247 246 247 247 252 260 205 251 149 340 260 257 258 277 301 309
243 239 237 236 229 223 218 221 224 243 274 303 320 326 324 321 302 274 245 142 221 171 182 184 177 176 198 216 204 220 238 259 279 271 259 262 243 276 269 262 260 275 272 280 288
247 242 236 232 226 218 212 210 206 226 261 300 321 327 321 311 287 0 135 182 183 199 196 198 187 197 222 216 206 213 244 269 242 260 265 267 266 266 262 270 266 279 287 293 296
258 243 237 233 227 215 201 194 199 217 243 300 326 330 317 274 292 56 40 169 182 204 186 181 190 201 233 217 221 247 235 260 250 257 253 256 268 267 270 269 278 274 280 288 282
272 251 238 236 223 213 192 185 193 198 219 302 343 331 301 236 246 61 121 161 179 196 207 200 210 225 234 232 232 239 254 250 249 247 250 266 262 265 266 270 273 269 271 277 287
268 267 248 234 224 206 185 170 174 178 151 301 357 305 265 254 281 251 217 196 217 212 218 226 233 237 277 240 233 286 249 251 247 239 243 252 254 244 247 258 255 246 255 256 280
268 268 260 231 220 196 175 168 160 155 115 323 310 278 255 257 258 199 204 226 239 239 244 239 246 228 236 245 231 257 252 243 241 244 239 248 255 245 251 262 254 221 244 262 294
267 260 240 242 211 188 165 158 153 153 125 264 295 246 261 244 262 247 244 232 240 245 247 247 223 238 244 255 223 233 239 248 184 223 224 216 261 188 221 221 227 258 250 267 307
269 246 231 228 196 170 153 153 149 152 188 234 239 200 265 121 228 243 231 231 221 224 231 258 206 214 209 238 241 219 252 219 229 206 186 213 255 257 185 210 255 262 266 300 299
265 232 216 214 179 154 139 133 120 151 207 226 240 228 233 238 191 222 217 213 217 203 212 223 219 219 219 217 230 236 228 249 235 173 226 221 241 248 273 262 249 261 279 255 278
247 217 214 190 151 138 119 109 134 219 222 209 201 243 274 278 242 217 175 173 203 194 207 203 213 222 225 225 240 287 269 249 202 220 262 253 257 254 248 251 240 245 195 189 344
229 209 203 169 151 153 149 192 185 11 260 227 253 250 262 282 270 222 167 177 191 213 218 209 232 240 232 240 238 247 250 254 264 259 244 259 254 241 248 247 245 177 161 131 334
208 202 164 146 142 146 181 166 109 139 303 271 230 246 240 222 242 233 200 192 193 206 212 217 249 235 251 237 231 237 245 252 255 208 233 263 260 235 197 163 154 137 118 129 32
191 158 140 129 123 143 145 142 119 339 241 257 200 245 202 200 258 225 211 199 196 213 197 235 249 292 271 239 227 237 220 245 251 249 253 195 264 173 173 170 182 159 161 77 29
148 140 139 145 128 174 150 154 161 242 275 152 159 91 163 187 336 192 203 211 215 198 181 204 199 194 234 234 222 248 228 233 241 249 262 235 252 161 176 179 174 162 118 69 22
114 122 119 86 65 111 128 130 153 171 230 190 163 176 178 216 240 33 186 217 153 182 260 241 281 182 216 235 254 262 239 235 240 240 243 245 228 168 187 187 143 135 98 31 10
101 104 79 86 126 137 120 116 149 234 148 179 209 194 213 206 222 208 180 176 173 185 204 212 219 217 208 213 202 215 216 210 225 216 243 166 227 202 131 116 97 106 57 21 6
94 73 40 108 136 143 126 105 222 294 220 22 289 243 226 207 227 205 184 192 221 236 221 210 209 212 184 232 201 197 203 219 214 226 230 144 229 106 91 87 89 74 35 11 3
98 59 89 136 132 169 161 197 216 201 265 275 286 287 214 210 239 202 198 206 197 219 227 195 200 164 187 209 233 191 217 243 282 270 275 199 143 114 113 109 103 63 20 11 6
124 115 120 159 151 175 224 201 185 202 292 256 227 266 263 204 202 188 176 128 170 259 290 57 134 191 140 196 113 262 164 200 218 246 240 237 240 160 139 114 72 45 23 17 8
147 130 125 143 200 174 223 192 176 227 286 298 198 164 249 296 248 129 181 123 82 96 66 30 271 146 220 337 55 168 189 232 286 283 275 271 245 84 111 79 40 32 21 12 2
173 137 137 162 171 208 212 199 181 202 226 201 107 170 142 280 188 134 187 42 7 43 129 204 278 142 96 27 287 285 292 276 255 214 262 300 292 139 113 63 8 15 16 5 1
123 118 121 208 197 200 210 205 199 225 206 206 144 209 210 207 155 127 151 317 197 181 214 199 141 180 207 188 44 243 114 126 137 245 254 263 266 147 120 234 115 338 352 358 0
182 146 152 209 223 229 196 201 199 215 196 201 154 119 259 166 229 149 147 146 158 139 56 237 178 276 260 53 95 174 172 162 167 228 291 244 293 215 288 308 319 74 340 357 17
202 188 168 186 198 207 202 202 194 176 192 198 153 173 205 177 123 138 131 131 103 62 66 20 180 190 85 107 130 194 213 220 239 247 254 292 301 304 317 318 348 43 30 27 30
167 178 178 201 182 196 180 214 199 172 179 183 210 199 175 218 230 176 155 172 165 118 100 5 125 156 228 244 258 265 255 251 250 260 266 273 276 3 334 14 53 47 52 23 29
185 206 241 142 185 187 197 221 199 165 132 193 237 159 138 105 87 88 85 90 117 142 123 135 140 164 184 137 255 251 280 264 244 250 292 285 341 330 318 176 42 53 49 34 27